Overview Statistics Trail Chart Weather Telemetry Raw packets
 

This is the latest recevied weather packets stored in our database for station/object N7ZEF. If no packets are shown the sender has not sent any weather packets the latest 10 day(s).

<< 47 48 49 50 51 52 53 >>
Time Temp. Humidity Pressure Rain* Wind** Luminosity Snow
1777448137 2.22° C 71% 1022.3 hPa 0 mm - - -
1777447535 1.67° C 72% 1022.3 hPa 0 mm - - -
1777446934 1.67° C 71% 1022.5 hPa 0 mm - - -
1777446332 2.22° C 70% 1022.5 hPa 0 mm - - -
1777445735 2.22° C 70% 1022.3 hPa 0 mm - - -
1777445130 2.22° C 69% 1022.5 hPa 0 mm - - -
1777444528 2.22° C 68% 1022.3 hPa 0 mm - - -
1777443927 2.78° C 67% 1022.2 hPa 0 mm - - -
1777443326 2.78° C 66% 1022.2 hPa 0 mm - - -
1777442724 3.33° C 64% 1022.1 hPa 0 mm - - -
1777442123 3.89° C 63% 1022.1 hPa 0 mm - - -
1777441521 4.44° C 62% 1022 hPa 0 mm - - -
1777440920 4.44° C 61% 1022 hPa 0 mm - - -
1777440319 4.44° C 61% 1022 hPa 0 mm - - -
1777439717 4.44° C 62% 1022.1 hPa 0 mm - - -
1777439115 4.44° C 59% 1022 hPa 0 mm - - -
1777438513 4.44° C 59% 1022 hPa 0 mm - - -
1777437912 5° C 57% 1022 hPa 0 mm - - -
1777437311 5.56° C 56% 1022.1 hPa 0 mm - - -
1777436709 5.56° C 54% 1022.1 hPa 0 mm - - -
1777436108 5.56° C 53% 1022 hPa 0 mm - - -
1777435507 6.11° C 51% 1022 hPa 0 mm - - -
1777434905 6.11° C 50% 1021.8 hPa 0 mm - - -
1777434304 6.11° C 49% 1021.7 hPa 0 mm - - -
1777433702 6.11° C 49% 1021.6 hPa 0 mm - - -

* Rain latest hour (hover to see other rain measurements)
** Current wind speed in m/s (hover to see current wind gust speed)